Content
SEND FEEDBACK

Daily
Averages
Monthly
Summary
United States of America

EARTH CITY, MISSOURI


Home > North America > United States > Missouri
Elevation: 145 meters     Latitude: 38 46N     Longitude: 090 30W

WEATHER
 
SELECT A DAY
Number of Records: 203,517;   Date Range: 1/1/95 - 8/28/14
 
SHARE

PRINT THIS DATA

[ ← Previous Day ]
WEATHER ALMANAC - 7 MAY, 2013
[ Next Day → ]
[ °F ]   °C
Weather ElementAverageHighLow
Temperature20.2 °C26.1 °C (4:51 pm)15.6 °C (1:51 am)
Dewpoint11.9 °C13.9 °C (8:51 am)10 °C (1:51 pm)
Humidity61.7 %83 % (1:51 am)36 % (4:51 pm)
Barometer1015.9 hPa1017.6 hPa (10:51 am)1014.9 hPa (1:51 am)
Wind Speed4.5 km/h14.8 km/h (5:51 pm)
Weather ElementAverage
Visibility16.1 km
Wind DirectionESE (97.3 °)

Weather ElementTotal
Precipitation---
Cooling Degree Days2.6 (Base 18.3)
Growing Degree Days10.9 (Base 10)
Averaged from 22 records on 7 May, 2013
WEATHER CONDITIONS BREAKOUT
WIND DIRECTION BREAKOUT
WEATHER BY HOUR - 7 MAY, 2013
[ °F ]   °C
Local TimeTemperatureDewpointHumidityBarometerVisibilityWind DirectionWind SpeedGust SpeedPrecipitationEventsConditions
1:51 AM15.6 °C12.8 °C83 %1014.9 hPa16.1 kmWest (270°)5.6 km/hOvercast
2:51 AM16.1 °C12.8 °C81 %1014.9 hPa16.1 kmCalmOvercast
3:51 AM15.6 °C12.8 °C83 %1014.9 hPa16.1 kmCalmOvercast
4:51 AM15.6 °C12.2 °C80 %1015.2 hPa16.1 kmCalmOvercast
5:51 AM15.6 °C12.2 °C80 %1015.6 hPa16.1 kmCalmOvercast
6:51 AM15.6 °C12.8 °C83 %1015.9 hPa16.1 kmCalmMostly Cloudy
7:51 AM16.7 °C12.8 °C78 %1016.3 hPa16.1 kmCalmMostly Cloudy
8:51 AM17.8 °C13.9 °C78 %1016.6 hPa16.1 kmCalmScattered Clouds
9:51 AM20.6 °C13.3 °C63 %1016.9 hPa16.1 kmEast (80°)7.4 km/hScattered Clouds
10:51 AM23 °C12 °C50 %1017.6 hPa16.1 kmNNE (30°)11.1 km/hScattered Clouds
11:51 AM23.3 °C10.6 °C45 %1016.9 hPa16.1 kmNorth (350°)7.4 km/hMostly Cloudy
12:51 PM24.4 °C10.6 °C42 %1016.3 hPa16.1 kmENE (70°)9.3 km/hMostly Cloudy
1:51 PM23.3 °C10 °C43 %1016.3 hPa16.1 kmEast (90°)5.6 km/hMostly Cloudy
2:51 PM23.9 °C11.7 °C46 %1015.9 hPa16.1 kmNW (320°)5.6 km/hMostly Cloudy
3:51 PM25 °C11.1 °C42 %1015.2 hPa16.1 kmNW (310°)5.6 km/hMostly Cloudy
4:51 PM26.1 °C10 °C36 %1014.9 hPa16.1 kmWNW (290°)9.3 km/hMostly Cloudy
5:51 PM23.9 °C12.2 °C48 %1014.9 hPa16.1 kmESE (120°)14.8 km/hScattered Clouds
6:51 PM23.3 °C11.7 °C48 %1015.2 hPa16.1 kmESE (110°)11.1 km/hScattered Clouds
8:51 PM21.7 °C11.1 °C51 %1015.2 hPa16.1 kmEast (100°)5.6 km/hScattered Clouds
9:51 PM20.6 °C11.7 °C57 %1015.6 hPa16.1 kmCalmPartly Cloudy
10:51 PM18.3 °C12.2 °C68 %1015.6 hPa16.1 kmCalmClear
11:51 PM17.2 °C12.2 °C72 %1015.6 hPa16.1 kmCalmClear
Hourly data recorded from KSTL, located 0 kilometers away from Earth City, Missouri







STORIES FROM OUR PARTNERS